ENY3956 KBUF-KDCA

Flight info

Callsign ENY3956
Flight time 0h 49m
Altitude 33000
Route VAIRS PSB SKILS5
Aircraft E75L/M-SDE3GILORVW/S

Departure

Time 2026-04-24 20:33
Airport Buffalo Niagara International Airport (KBUF)

Arrival

Time 2026-04-24 21:23
Airport Ronald Reagan Washington National Airport (KDCA)
Time Latitude Longitude Altitude Speed Heading
2026-04-24 20:08 42.93419 -78.73345 706 ft 0 kts 164°
2026-04-24 20:28 42.93424 -78.73347 693 ft 4 kts 164°
2026-04-24 20:28 42.93450 -78.73356 698 ft 4 kts 170°
2026-04-24 20:28 42.93477 -78.73360 704 ft 4 kts 182°
2026-04-24 20:28 42.93501 -78.73350 704 ft 3 kts 220°
2026-04-24 20:29 42.93504 -78.73347 704 ft 2 kts 224°
2026-04-24 20:30 42.93480 -78.73379 701 ft 10 kts 224°
2026-04-24 20:31 42.93467 -78.73396 701 ft 11 kts 224°
2026-04-24 20:31 42.93392 -78.73495 702 ft 19 kts 224°
2026-04-24 20:31 42.93383 -78.73595 701 ft 6 kts 261°
2026-04-24 20:32 42.93350 -78.73660 711 ft 11 kts 226°
2026-04-24 20:32 42.93280 -78.73755 708 ft 17 kts 225°
2026-04-24 20:32 42.93178 -78.73888 712 ft 22 kts 224°
2026-04-24 20:32 42.93086 -78.74034 711 ft 20 kts 260°
2026-04-24 20:33 42.93152 -78.74126 715 ft 12 kts 30°
2026-04-24 20:33 42.93346 -78.73870 714 ft 78 kts 43°
2026-04-24 20:33 42.93917 -78.73128 764 ft 142 kts 45°
2026-04-24 20:33 42.94642 -78.72206 1685 ft 139 kts 45°
2026-04-24 20:34 42.95365 -78.71245 2377 ft 153 kts 47°
2026-04-24 20:34 42.96206 -78.70105 2532 ft 188 kts 48°
2026-04-24 20:34 42.97182 -78.68803 3236 ft 207 kts 45°
2026-04-24 20:34 42.98276 -78.67356 4025 ft 226 kts 42°
2026-04-24 20:35 42.99474 -78.65782 4776 ft 252 kts 41°
2026-04-24 20:35 43.00780 -78.64038 5550 ft 273 kts 44°
2026-04-24 20:35 43.01746 -78.61738 6518 ft 291 kts 73°
2026-04-24 20:35 43.01693 -78.58985 7577 ft 301 kts 104°
2026-04-24 20:36 43.00688 -78.56472 8616 ft 305 kts 133°
2026-04-24 20:36 42.99023 -78.54688 9622 ft 306 kts 148°
2026-04-24 20:36 42.97063 -78.53538 10319 ft 315 kts 173°
2026-04-24 20:36 42.94859 -78.53524 10974 ft 322 kts 188°
2026-04-24 20:37 42.92590 -78.53757 11774 ft 331 kts 187°
2026-04-24 20:37 42.90259 -78.53955 12683 ft 339 kts 187°
2026-04-24 20:37 42.87887 -78.54159 13704 ft 345 kts 187°
2026-04-24 20:37 42.85468 -78.54356 14602 ft 351 kts 187°
2026-04-24 20:38 42.83014 -78.54553 15601 ft 356 kts 187°
2026-04-24 20:38 42.80519 -78.54753 16523 ft 362 kts 187°
2026-04-24 20:38 42.77984 -78.54961 17388 ft 368 kts 187°
2026-04-24 20:38 42.75398 -78.55191 18224 ft 375 kts 187°
2026-04-24 20:39 42.72776 -78.55433 18958 ft 381 kts 187°
2026-04-24 20:39 42.70108 -78.55684 19699 ft 387 kts 187°
2026-04-24 20:39 42.67431 -78.55954 20455 ft 393 kts 188°
2026-04-24 20:39 42.64673 -78.56233 21187 ft 399 kts 188°
2026-04-24 20:40 42.61889 -78.56526 21893 ft 404 kts 188°
2026-04-24 20:40 42.59067 -78.56833 22536 ft 410 kts 188°
2026-04-24 20:40 42.56208 -78.57155 23169 ft 415 kts 188°
2026-04-24 20:40 42.53305 -78.57500 23723 ft 420 kts 189°
2026-04-24 20:41 42.50404 -78.57851 24257 ft 425 kts 189°
2026-04-24 20:41 42.47406 -78.58227 24834 ft 429 kts 189°
2026-04-24 20:41 42.44447 -78.58610 25361 ft 434 kts 189°
2026-04-24 20:41 42.41424 -78.59014 25928 ft 438 kts 189°
2026-04-24 20:42 42.38379 -78.59431 26454 ft 442 kts 190°
2026-04-24 20:42 42.35298 -78.59862 26985 ft 446 kts 190°
2026-04-24 20:42 42.32193 -78.60304 27508 ft 450 kts 190°
2026-04-24 20:42 42.29062 -78.60760 27977 ft 455 kts 190°
2026-04-24 20:43 42.25905 -78.61228 28471 ft 458 kts 190°
2026-04-24 20:43 42.22722 -78.61706 28924 ft 462 kts 191°
2026-04-24 20:43 42.19506 -78.62196 29367 ft 466 kts 191°
2026-04-24 20:43 42.16271 -78.62692 29819 ft 470 kts 189°
2026-04-24 20:44 42.13016 -78.62677 30151 ft 480 kts 174°
2026-04-24 20:44 42.09777 -78.61466 30560 ft 485 kts 160°
2026-04-24 20:44 42.06635 -78.59736 30938 ft 488 kts 158°
2026-04-24 20:44 42.03484 -78.57999 31310 ft 489 kts 159°
2026-04-24 20:45 42.00313 -78.56272 31695 ft 491 kts 159°
2026-04-24 20:45 41.97174 -78.54576 32050 ft 493 kts 159°
2026-04-24 20:45 41.93982 -78.52860 32475 ft 493 kts 159°
2026-04-24 20:45 41.90800 -78.51151 32945 ft 492 kts 159°
2026-04-24 20:46 41.84313 -78.47711 32976 ft 508 kts 160°
2026-04-24 20:46 41.77703 -78.44225 32973 ft 512 kts 160°
2026-04-24 20:47 41.71060 -78.40729 32962 ft 513 kts 160°
2026-04-24 20:47 41.64405 -78.37239 32952 ft 514 kts 160°
2026-04-24 20:48 41.57740 -78.33750 32949 ft 513 kts 160°
2026-04-24 20:48 41.52199 -78.30855 32944 ft 514 kts 160°
2026-04-24 20:49 41.45549 -78.27387 32935 ft 514 kts 160°
2026-04-24 20:49 41.38885 -78.23922 32948 ft 514 kts 160°
2026-04-24 20:50 41.32283 -78.20497 32956 ft 512 kts 160°
2026-04-24 20:50 41.25642 -78.17058 32956 ft 512 kts 160°
2026-04-24 20:51 41.19002 -78.13625 32956 ft 511 kts 160°
2026-04-24 20:51 41.12371 -78.10206 32945 ft 510 kts 160°
2026-04-24 20:52 41.05758 -78.06804 32950 ft 509 kts 160°
2026-04-24 20:52 40.99135 -78.03404 32950 ft 510 kts 160°
2026-04-24 20:53 40.92569 -78.00022 32946 ft 509 kts 158°
2026-04-24 20:53 40.89550 -77.97604 32962 ft 509 kts 140°
2026-04-24 20:53 40.86891 -77.94487 32987 ft 511 kts 136°
2026-04-24 20:54 40.81574 -77.88226 32955 ft 511 kts 137°
2026-04-24 20:54 40.76219 -77.82045 32923 ft 511 kts 138°
2026-04-24 20:55 40.70852 -77.75898 32937 ft 511 kts 138°
2026-04-24 20:55 40.65492 -77.69791 32946 ft 507 kts 138°
2026-04-24 20:56 40.60141 -77.63713 32937 ft 508 kts 138°
2026-04-24 20:56 40.54813 -77.57682 32925 ft 511 kts 138°
2026-04-24 20:57 40.49427 -77.51595 32930 ft 511 kts 138°
2026-04-24 20:57 40.44026 -77.45508 32923 ft 510 kts 139°
2026-04-24 20:58 40.38653 -77.39466 32900 ft 502 kts 139°
2026-04-24 20:58 40.36089 -77.36588 32847 ft 483 kts 139°
2026-04-24 20:58 40.33544 -77.33730 31900 ft 484 kts 138°
2026-04-24 20:59 40.30983 -77.30842 31050 ft 483 kts 138°
2026-04-24 20:59 40.28453 -77.28003 30402 ft 476 kts 138°
2026-04-24 20:59 40.25943 -77.25193 29737 ft 471 kts 138°
2026-04-24 20:59 40.23472 -77.22424 29145 ft 462 kts 138°
2026-04-24 21:00 40.21074 -77.19722 28498 ft 456 kts 137°
2026-04-24 21:00 40.18684 -77.17013 27931 ft 452 kts 138°
2026-04-24 21:00 40.16307 -77.14337 27452 ft 453 kts 138°
2026-04-24 21:00 40.13906 -77.11650 26816 ft 454 kts 139°
2026-04-24 21:01 40.11508 -77.08976 26200 ft 451 kts 139°
2026-04-24 21:01 40.09131 -77.06335 25605 ft 446 kts 139°
2026-04-24 21:01 40.06771 -77.03719 25014 ft 442 kts 139°
2026-04-24 21:01 40.04437 -77.01136 24431 ft 437 kts 139°
2026-04-24 21:02 40.02121 -76.98576 23855 ft 433 kts 139°
2026-04-24 21:02 39.99857 -76.96080 23252 ft 429 kts 140°
2026-04-24 21:02 39.97567 -76.93557 22703 ft 422 kts 140°
2026-04-24 21:02 39.95341 -76.91107 22145 ft 417 kts 140°
2026-04-24 21:03 39.93161 -76.88707 21607 ft 413 kts 140°
2026-04-24 21:03 39.90975 -76.86305 21070 ft 409 kts 140°
2026-04-24 21:03 39.88798 -76.83914 20514 ft 408 kts 140°
2026-04-24 21:03 39.86632 -76.81538 19980 ft 405 kts 140°
2026-04-24 21:04 39.84488 -76.79189 19439 ft 401 kts 140°
2026-04-24 21:04 39.82368 -76.76867 18911 ft 396 kts 141°
2026-04-24 21:04 39.80271 -76.74572 18389 ft 392 kts 141°
2026-04-24 21:04 39.78192 -76.72293 17835 ft 388 kts 141°
2026-04-24 21:05 39.76141 -76.70055 17350 ft 383 kts 141°
2026-04-24 21:05 39.74107 -76.67830 16839 ft 380 kts 141°
2026-04-24 21:05 39.72087 -76.65626 16335 ft 378 kts 141°
2026-04-24 21:05 39.70073 -76.63453 15834 ft 374 kts 144°
2026-04-24 21:06 39.67784 -76.61968 15309 ft 365 kts 169°
2026-04-24 21:06 39.65300 -76.61770 14899 ft 354 kts 187°
2026-04-24 21:06 39.62895 -76.62023 14398 ft 348 kts 188°
2026-04-24 21:06 39.60499 -76.62267 13930 ft 342 kts 189°
2026-04-24 21:07 39.58147 -76.62519 13490 ft 335 kts 189°
2026-04-24 21:07 39.55850 -76.62738 13069 ft 327 kts 187°
2026-04-24 21:07 39.53603 -76.62893 12761 ft 318 kts 187°
2026-04-24 21:07 39.51426 -76.63047 12520 ft 309 kts 187°
2026-04-24 21:08 39.49297 -76.63209 12314 ft 306 kts 188°
2026-04-24 21:08 39.47187 -76.63399 12083 ft 307 kts 189°
2026-04-24 21:08 39.45053 -76.63595 11844 ft 308 kts 189°
2026-04-24 21:08 39.42905 -76.63785 11596 ft 309 kts 189°
2026-04-24 21:09 39.40751 -76.63985 11354 ft 310 kts 189°
2026-04-24 21:09 39.38607 -76.64181 11038 ft 308 kts 189°
2026-04-24 21:09 39.36481 -76.64375 10816 ft 303 kts 189°
2026-04-24 21:09 39.34380 -76.64566 10598 ft 302 kts 189°
2026-04-24 21:10 39.32289 -76.64756 10385 ft 302 kts 189°
2026-04-24 21:10 39.30179 -76.64949 10157 ft 303 kts 189°
2026-04-24 21:10 39.28108 -76.65135 10042 ft 300 kts 189°
2026-04-24 21:10 39.26028 -76.65322 10060 ft 300 kts 189°
2026-04-24 21:11 39.23929 -76.65514 10050 ft 305 kts 188°
2026-04-24 21:11 39.21812 -76.65704 10037 ft 305 kts 189°
2026-04-24 21:11 39.19703 -76.65893 10050 ft 304 kts 189°
2026-04-24 21:11 39.17617 -76.66226 10066 ft 298 kts 201°
2026-04-24 21:12 39.15869 -76.67509 10093 ft 286 kts 226°
2026-04-24 21:12 39.14897 -76.68655 10095 ft 286 kts 229°
2026-04-24 21:12 39.12958 -76.71010 10048 ft 286 kts 228°
2026-04-24 21:12 39.11499 -76.72754 10086 ft 287 kts 228°
2026-04-24 21:13 39.10036 -76.74497 10090 ft 286 kts 228°
2026-04-24 21:13 39.08575 -76.76232 10086 ft 286 kts 228°
2026-04-24 21:13 39.07110 -76.77970 10094 ft 286 kts 228°
2026-04-24 21:13 39.05660 -76.79686 10102 ft 286 kts 228°
2026-04-24 21:14 39.04191 -76.81426 9831 ft 291 kts 227°
2026-04-24 21:14 39.02686 -76.83221 9175 ft 296 kts 227°
2026-04-24 21:14 39.01211 -76.84958 9118 ft 280 kts 227°
2026-04-24 21:14 38.99788 -76.86630 9046 ft 276 kts 227°
2026-04-24 21:15 38.98377 -76.88294 8963 ft 276 kts 227°
2026-04-24 21:15 38.96948 -76.89975 8712 ft 278 kts 226°
2026-04-24 21:15 38.95472 -76.91585 8452 ft 280 kts 223°
2026-04-24 21:15 38.93924 -76.93111 8113 ft 280 kts 216°
2026-04-24 21:16 38.92084 -76.93998 7721 ft 289 kts 192°
2026-04-24 21:16 38.90098 -76.94170 7353 ft 290 kts 185°
2026-04-24 21:16 38.88049 -76.94183 6879 ft 289 kts 183°
2026-04-24 21:16 38.86052 -76.94215 6506 ft 285 kts 184°
2026-04-24 21:17 38.84076 -76.94265 6121 ft 282 kts 184°
2026-04-24 21:17 38.82148 -76.94322 5770 ft 278 kts 184°
2026-04-24 21:17 38.80229 -76.94386 5396 ft 275 kts 185°
2026-04-24 21:17 38.78965 -76.94432 5166 ft 273 kts 184°
2026-04-24 21:18 38.76439 -76.94446 4744 ft 271 kts 178°
2026-04-24 21:18 38.74561 -76.94218 4389 ft 271 kts 175°
2026-04-24 21:18 38.72712 -76.94000 4113 ft 267 kts 177°
2026-04-24 21:18 38.70883 -76.94116 3866 ft 263 kts 197°
2026-04-24 21:19 38.69362 -76.95352 3648 ft 262 kts 230°
2026-04-24 21:19 38.68590 -76.97444 3336 ft 265 kts 261°
2026-04-24 21:19 38.68839 -76.99735 3051 ft 261 kts 295°
2026-04-24 21:19 38.69970 -77.01454 3012 ft 245 kts 320°
2026-04-24 21:20 38.72910 -77.02658 2952 ft 214 kts
2026-04-24 21:20 38.74345 -77.02622 2783 ft 200 kts 356°
2026-04-24 21:20 38.75672 -77.02835 2405 ft 185 kts 355°
2026-04-24 21:21 38.76923 -77.02958 2037 ft 176 kts
2026-04-24 21:21 38.78117 -77.03049 1691 ft 166 kts 359°
2026-04-24 21:21 38.79225 -77.03180 1349 ft 155 kts 356°
2026-04-24 21:21 38.80268 -77.03281 1004 ft 147 kts
2026-04-24 21:22 38.81287 -77.03385 671 ft 149 kts 356°
2026-04-24 21:22 38.82296 -77.03484 440 ft 140 kts 357°
2026-04-24 21:22 38.83257 -77.03596 239 ft 135 kts 358°
2026-04-24 21:22 38.83898 -77.03654 123 ft 139 kts
2026-04-24 21:23 38.85083 -77.03768 24 ft 107 kts 356°
2026-04-24 21:23 38.85645 -77.03819 22 ft 59 kts 357°
2026-04-24 21:23 38.85931 -77.03949 22 ft 25 kts 284°
2026-04-24 21:23 38.85924 -77.04170 23 ft 25 kts 264°
2026-04-24 21:24 38.85908 -77.04273 24 ft 2 kts 200°
2026-04-24 21:24 38.85878 -77.04252 22 ft 14 kts 143°
2026-04-24 21:24 38.85792 -77.04167 22 ft 17 kts 142°
2026-04-24 21:24 38.85734 -77.04172 22 ft 8 kts 240°
2026-04-24 21:25 38.85715 -77.04248 22 ft 9 kts 251°
2026-04-24 21:25 38.85698 -77.04317 24 ft 7 kts 252°
2026-04-24 21:25 38.85674 -77.04350 23 ft 4 kts 200°
2026-04-24 21:25 38.85645 -77.04359 22 ft 4 kts 192°
2026-04-24 21:26 38.85644 -77.04359 22 ft 0 kts 192°